FW6463 Weather Reports


Display with metric or nautical units.
time (UTC)temp
F
wind
direction
speed
MPH
gust
MPH
rain 1hr
in
rain 24hr
in
rain mn
in
humidity
%
barometer
mb
20260505212518 82 212 9.0 18.0 0.00 0.01 0.01 43 1010.4
20260505211523 82 158 9.0 15.0 0.00 0.01 0.01 43 1010.4
20260505210527 83 215 7.0 13.0 0.00 0.01 0.01 43 1010.3
20260505205532 83 166 8.0 12.0 0.00 0.01 0.01 43 1010.5
20260505204520 83 215 6.0 10.0 0.00 0.01 0.01 44 1010.5
20260505203524 83 270 9.0 9.0 0.00 0.01 0.01 45 1010.5
20260505202528 82 197 7.0 12.0 0.00 0.01 0.01 45 1010.6
20260505201015 82 192 9.0 17.0 0.00 0.01 0.01 46 1010.8
20260505200020 83 162 8.0 13.0 0.00 0.01 0.01 46 1010.9
20260505195025 82 190 11.0 14.0 0.00 0.01 0.01 47 1011.0
20260505194030 81 189 9.0 14.0 0.00 0.01 0.01 48 1011.0
20260505193016 82 203 9.0 15.0 0.00 0.01 0.01 48 1011.3
20260505192021 82 177 7.0 12.0 0.00 0.01 0.01 47 1011.3
20260505191047 81 176 7.0 12.0 0.00 0.01 0.01 47 1011.5
20260505190030 82 178 8.0 12.0 0.00 0.01 0.01 47 1011.5
20260505185022 82 206 10.0 16.0 0.00 0.01 0.01 47 1011.6
20260505184022 81 189 7.0 11.0 0.00 0.01 0.01 49 1011.6
20260505183028 83 232 9.0 15.0 0.00 0.01 0.01 47 1011.7
20260505182031 83 224 7.0 10.0 0.00 0.01 0.01 47 1011.9
20260505181039 83 235 8.0 13.0 0.00 0.01 0.01 47 1012.1
20260505180023 81 234 9.0 16.0 0.00 0.01 0.01 47 1012.0
20260505175027 82 225 7.0 10.0 0.00 0.01 0.01 47 1012.1
20260505174026 83 233 7.0 14.0 0.00 0.01 0.01 48 1012.1
20260505173039 80 199 9.0 15.0 0.00 0.01 0.01 47 1012.1
20260505172024 82 211 6.0 9.0 0.00 0.01 0.01 48 1012.2
20260505171044 82 270 11.0 15.0 0.00 0.01 0.01 48 1012.4
20260505170016 82 199 9.0 13.0 0.00 0.01 0.01 47 1012.7
20260505165041 81 220 8.0 11.0 0.00 0.01 0.01 48 1012.9
20260505164019 81 218 8.0 13.0 0.00 0.01 0.01 49 1013.0
20260505163038 80 231 10.0 16.0 0.00 0.01 0.01 49 1013.2
20260505162017 80 248 11.0 16.0 0.00 0.01 0.01 50 1013.2
20260505161015 80 247 11.0 16.0 0.00 0.01 0.01 50 1013.3
20260505153024 78 226 9.0 12.0 0.01 0.01 0.01 55 1013.5
20260505152027 0 113 7.0 7.0 0.01 0.01 0.01 1013.7
20260505151032 77 235 9.0 14.0 0.01 0.01 0.01 56 1013.5
20260505125028 70 209 8.0 10.0 0.00 0.00 0.00 60 1013.9
20260505124033 70 211 6.0 12.0 0.00 0.00 0.00 61 1013.9
20260505123019 69 198 5.0 8.0 0.00 0.00 0.00 63 1013.9
20260505122025 68 161 5.0 7.0 0.00 0.00 0.00 65 1014.0
20260505121029 67 224 4.0 8.0 0.00 0.00 0.00 67 1014.0
20260505120015 66 236 5.0 8.0 0.00 0.00 0.00 68 1013.9
20260505115020 65 213 4.0 6.0 0.00 0.00 0.00 68 1013.8
20260505114024 65 219 4.0 5.0 0.00 0.00 0.00 69 1013.7
20260505113029 64 210 3.0 6.0 0.00 0.00 0.00 70 1013.7
20260505112016 64 194 5.0 8.0 0.00 0.00 0.00 69 1013.5
20260505111042 64 189 4.0 6.0 0.00 0.00 0.00 69 1013.5
20260505102028 63 191 5.0 6.0 0.00 0.00 0.00 72 1013.2
20260505101032 62 220 5.0 6.0 0.00 0.00 0.00 73 1013.2
20260505100019 61 223 3.0 4.0 0.00 0.00 0.00 74 1013.0
20260505095043 62 227 3.0 5.0 0.00 0.00 0.00 73 1013.0
20260505094028 62 244 4.0 5.0 0.00 0.00 0.00 72 1013.0
20260505093027 63 219 3.0 5.0 0.00 0.00 0.00 70 1012.8
20260505092019 63 168 5.0 8.0 0.00 0.00 0.00 70 1013.0
20260505091044 63 214 4.0 6.0 0.00 0.00 0.00 70 1012.8
20260505090023 64 211 5.0 7.0 0.00 0.00 0.00 69 1012.7
20260505085037 64 200 5.0 9.0 0.00 0.00 0.00 69 1012.8
20260505084021 64 236 5.0 10.0 0.00 0.00 0.00 69 1012.8
20260505083019 0 0.0 0.0 0.00 0.00 0.00 1012.7
20260505082018 65 206 4.0 6.0 0.00 0.00 0.00 68 1012.7
20260505081140 65 216 4.0 7.0 0.00 0.00 0.00 67 1012.5
20260505080036 65 214 6.0 12.0 0.00 0.00 0.00 67 1012.5
20260505075026 65 224 5.0 8.0 0.00 0.00 0.00 66 1012.4
20260505074031 66 197 5.0 8.0 0.00 0.00 0.00 65 1012.4
20260505073019 66 230 5.0 8.0 0.00 0.00 0.00 65 1012.4
20260505072023 66 192 7.0 12.0 0.00 0.00 0.00 64 1012.3
20260505071028 66 228 6.0 10.0 0.00 0.00 0.00 64 1012.1
20260505070032 66 195 7.0 13.0 0.00 0.00 0.00 64 1012.2
20260505065020 66 197 6.0 9.0 0.00 0.00 0.00 64 1012.4
20260505064024 66 178 5.0 11.0 0.00 0.00 0.00 64 1012.4
20260505063028 66 203 6.0 9.0 0.00 0.00 0.00 66 1012.4
20260505062015 66 223 5.0 9.0 0.00 0.00 0.00 66 1012.5
20260505061020 66 223 5.0 7.0 0.00 0.00 0.00 66 1012.5
20260505060024 66 206 5.0 7.0 0.00 0.00 0.00 66 1012.6
20260505055029 65 197 4.0 9.0 0.00 0.00 0.00 67 1012.6
20260505054016 65 173 4.0 8.0 0.00 0.00 0.00 68 1012.7
20260505053022 65 211 5.0 10.0 0.00 0.00 0.00 67 1012.7
20260505052026 65 214 4.0 7.0 0.00 0.00 0.00 67 1012.6
20260505051052 66 235 3.0 6.0 0.00 0.00 0.00 66 1012.5
20260505041023 67 179 5.0 8.0 0.00 0.00 0.00 65 1012.2
20260505040028 66 185 5.0 10.0 0.00 0.00 0.00 67 1012.2
20260505035032 66 195 5.0 8.0 0.00 0.00 0.00 67 1012.2
20260505034019 66 187 5.0 8.0 0.00 0.00 0.00 67 1012.1
20260505033024 66 220 3.0 6.0 0.00 0.00 0.00 66 1012.2
20260505032029 66 194 4.0 8.0 0.00 0.00 0.00 66 1012.3
20260505031016 66 207 3.0 5.0 0.00 0.00 0.00 66 1012.4
20260505030020 66 224 3.0 6.0 0.00 0.00 0.00 66 1012.1
20260505025025 66 230 4.0 7.0 0.00 0.00 0.00 66 1012.2
20260505024050 66 191 2.0 4.0 0.00 0.00 0.00 65 1012.2
20260505023016 66 202 2.0 5.0 0.00 0.00 0.00 64 1012.1
20260505022021 67 210 4.0 5.0 0.00 0.00 0.00 64 1011.9
20260505021026 67 208 4.0 6.0 0.00 0.00 0.00 64 1011.8
20260505020032 67 166 5.0 7.0 0.00 0.00 0.00 63 1012.1
20260505015017 67 209 4.0 6.0 0.00 0.00 0.00 62 1012.1
20260505014023 68 212 4.0 7.0 0.00 0.00 0.00 59 1012.0
20260505013028 69 179 8.0 11.0 0.00 0.00 0.00 57 1011.8
20260505012026 69 186 7.0 10.0 0.00 0.00 0.00 56 1011.8
20260505011018 69 190 6.0 9.0 0.00 0.00 0.00 55 1011.5
20260505010023 0 0.0 0.0 0.00 0.00 0.00 1011.4
20260505005042 69 187 5.0 9.0 0.00 0.00 0.00 55 1011.3
20260505004041 69 185 5.0 9.0 0.00 0.00 0.00 55 1011.3
20260505003020 69 187 7.0 15.0 0.00 0.00 0.00 54 1011.1
20260505002018 69 196 6.0 11.0 0.00 0.00 0.00 54 1011.1
20260505001017 70 189 7.0 10.0 0.00 0.00 0.00 53 1010.9
20260505000016 70 171 9.0 12.0 0.00 0.00 0.00 52 1010.9
20260504235022 71 181 7.0 10.0 0.00 0.00 0.00 52 1011.0
20260504234026 71 193 5.0 7.0 0.00 0.00 0.00 52 1011.0
20260504233030 71 191 5.0 8.0 0.00 0.00 0.00 51 1010.9
20260504232017 73 177 6.0 11.0 0.00 0.00 0.00 50 1011.0
20260504231022 74 209 6.0 10.0 0.00 0.00 0.00 49 1010.8
20260504230027 74 174 6.0 10.0 0.00 0.00 0.00 48 1011.0
20260504225033 75 183 5.0 8.0 0.00 0.00 0.00 47 1011.1
20260504224019 75 194 7.0 9.0 0.00 0.00 0.00 47 1011.1
20260504223043 76 191 5.0 9.0 0.00 0.00 0.00 46 1011.2
20260504222029 76 176 7.0 10.0 0.00 0.00 0.00 47 1011.2
20260504221032 77 185 7.0 13.0 0.00 0.00 0.00 46 1011.2
20260504220020 76 203 4.0 8.0 0.00 0.00 0.00 47 1011.2
20260504215025 77 189 8.0 14.0 0.00 0.00 0.00 47 1011.2
20260504214029 76 176 7.0 12.0 0.00 0.00 0.00 47 1011.2